Voltar ao catálogo

QZS-1

MICHIBIKI

AtivoNavegaçãoMEO
NORAD 37158·PAYLOAD·🇯🇵 Japan

Lançado Sep 11, 2010 de Tanegashima Space Center

Loading…

Próximas Passagens (próximas 24 horas)

TLE

AtualizadoSource: Space-Track

Época: Sep 14, 2026, 04:56 UTC

1 37158U 10045A   26257.20583920  .00000010  00000-0  00000-0 0  9996
2 37158  44.3400 115.4147 0007639  55.8953 162.6006  0.87715528 57178

Acompanhe QZS-1 em tempo real com AllMySat

Download on the App Store